Location: Petrozavodsk
(61.7955°N, 34.3748°E)
Time: 00:02:20
(UTC+03:00)

Envisat - Visible Passes

Search period start: 26 March 2023 00:00
Search period end: 05 April 2023 00:00
Orbit: 763 x 765 km, 98.2° (Epoch: 25 March)

Date Brightness Start Highest point End Pass type
(mag) Time Alt. Az. Time Alt. Az. Time Alt. Az.
26 Mar 5.4 03:32:40 10° NE 03:36:27 21° E 03:40:15 10° SE visible
26 Mar 3.2 05:11:10 10° NNE 05:16:17 80° ESE 05:21:23 10° SSW visible
27 Mar 5.8 02:56:43 10° NE 02:58:44 12° ENE 03:00:45 10° E visible
27 Mar 4.0 04:34:06 10° NNE 04:39:03 48° E 04:43:57 10° S visible
28 Mar 4.9 03:57:11 10° NNE 04:01:37 29° E 04:06:01 10° SSE visible
29 Mar 5.6 03:20:38 10° NE 03:24:00 18° E 03:27:23 10° SE visible
29 Mar 3.4 04:58:53 10° NNE 05:03:59 68° ESE 05:09:03 10° S visible
30 Mar 6.1 02:45:56 10° ENE 02:46:12 10° ENE 02:46:30 10° ENE visible
30 Mar 4.3 04:21:52 10° NNE 04:26:41 40° E 04:31:28 10° SSE visible
31 Mar 5.1 03:45:02 10° NNE 03:49:12 25° E 03:53:20 10° SE visible
01 Apr 5.7 03:08:41 10° NE 03:11:32 15° E 03:14:22 10° ESE visible
01 Apr 3.7 04:46:37 10° NNE 04:51:39 58° ESE 04:56:40 10° S visible
02 Apr 4.6 04:09:38 10° NNE 04:14:18 34° E 04:18:55 10° SSE visible
03 Apr 5.4 03:32:55 10° NE 03:36:45 21° E 03:40:34 10° SE visible
03 Apr 3.2 05:11:25 10° NNE 05:16:33 81° ESE 05:21:39 10° SSW visible
04 Apr 5.8 02:56:54 10° NE 02:59:00 12° ENE 03:01:07 10° ESE visible
04 Apr 4.0 04:34:20 10° NNE 04:39:18 49° E 04:44:14 10° S visible
